Tracking 29892 objects as of 21-Nov-2024
HD Live streaming from Space Station
objects crossing your sky now

STARLINK-32314

Track STARLINK-32314 now!
10-day predictions
STARLINK-32314 is classified as:


NORAD ID: 61709
Int'l Code: 2024-196C
Perigee: 372.9 km
Apogee: 374.5 km
Inclination: 53.2 °
Period: 91.9 minutes
Semi major axis: 6744 km
RCS: Unknown
Launch date: October 30, 2024
Source: United States (US)
Launch site: AIR FORCE EASTERN TEST RANGE (AFETR)
Your satellite tracking list
Your tracking list is empty




NASA's NSSDC Master Catalog

Two Line Element Set (TLE):
1 61709U 24196C   24326.16667824 -.01487238  00000-0 -15112-1 0  9998
2 61709  53.1591 146.4656 0001248  87.5959  91.1211 15.67324610  4362
Source of the keplerian elements: AFSPC